Regional Weather Roundup
Issued by NWS

Home | Current Version | Previous Version | Graphics & Text | Print | Product List | Glossary On
Versions: 1 2 3 4 5 6 7 8 9 10 11 12 13 14 15 16 17 18 19 20 21 22 23 24 25 26 27 28 29 30 31 32 33 34 35 36 37 38 39 40 41 42 43 44 45 46 47 48 49 50
000
ASUS43 KMKX 202121
RWRWI

WISCONSIN REGIONAL WEATHER ROUNDUP
NATIONAL WEATHER SERVICE MILWAUKEE/SULLIVAN WI
400 PM CDT SUN MAY 20 2018

NOTE: "FAIR" INDICATES FEW OR NO CLOUDS BELOW 12,000 FEET WITH NO
SIGNIFICANT WEATHER AND/OR OBSTRUCTIONS TO VISIBILITY.

WIZ001-002-006>008-014>016-023>028-202200-
NORTHWEST WISCONSIN

CITY           SKY/WX    TMP DP  RH WIND       PRES   REMARKS
SUPERIOR ARPT  FAIR      66  32  28 E7        30.22F
ASHLAND        FAIR      66  32  28 N9        30.23F
HAYWARD        FAIR      71  25  17 NE7       30.19F
SIREN          FAIR      71  21  15 CALM      30.19F
CUMBERLAND     FAIR      66  28  24 E6        30.19F
RICE LAKE      FAIR      71  23  16 NE9       30.19F
CHETEK         FAIR      70  31  23 E6        30.19F
LADYSMITH      FAIR      70  28  20 MISG      30.20F
EAU CLAIRE     FAIR      70  29  21 E10       30.17F
MENOMONIE      FAIR      70  27  20 NE12      30.18F
NEW RICHMOND   FAIR      71  22  16 NE12      30.17F
OSCEOLA        FAIR      71  23  16 NE9       30.20F
$$

WIZ003>005-009-010-017-018-202200-
NORTH CENTRAL WISCONSIN

CITY           SKY/WX    TMP DP  RH WIND       PRES   REMARKS
MANITOWISH WTR FAIR      68  28  22 E6        30.21F
ARBOR VITAE    FAIR      72  28  19 SE3       30.20F
WOODRUFF       FAIR      72  28  19 SE3       30.20F
RHINELANDER    FAIR      71  25  17 VRB6      30.21F
EAGLE RIVER    FAIR      68  24  19 E5        30.20F
LAND O LAKES   FAIR      69  23  17 CALM      30.22F
PHILLIPS       FAIR      68  29  23 E3        30.20F
TOMAHAWK       FAIR      67  26  22 N5        30.21F
MEDFORD        FAIR      67  28  22 E9        30.19F
MERRILL        FAIR      69  30  23 E5        30.20F
$$

WIZ029-030-035-036-043>047-202200-
CENTRAL WISCONSIN

CITY           SKY/WX    TMP DP  RH WIND       PRES   REMARKS
WAUSAU         FAIR      69  26  20 E5        30.18F
MOSINEE        MOSUNNY   66  30  26 CALM      30.20F
MARSHFIELD     FAIR      69  37  30 SE12G17   30.18F
STEVENS POINT  NOT AVBL
WAUPACA        FAIR      70  34  26 NE7       30.21S
WAUTOMA        FAIR      64  45  49 SE9       30.21F
WISC RAPIDS    FAIR      70  37  29 E13G20    30.19F
CAMP DOUGLAS   CLOUDY    59  48  67 SE7       30.20F
$$

WIZ011>013-019>022-031-037>040-048>050-202200-
NORTHEAST WISCONSIN

CITY           SKY/WX    TMP DP  RH WIND       PRES   REMARKS
ANTIGO         FAIR      65  28  24 E3        30.21F
SHAWANO        FAIR      69  32  25 E8        30.20F
OCONTO         FAIR      60  28  28 E10       30.23F
STURGEON BAY   FAIR      59  28  30 E9        30.24F
GREEN BAY      FAIR      62  29  28 NE13      30.23F
MANITOWOC      FAIR      56  33  42 NE9       30.23
APPLETON       MOSUNNY   63  16  16 NE12      30.20F
CLINTONVILLE   FAIR      67  28  23 NE8       30.21S
OSHKOSH        FAIR      60  42  51 NE6       30.21F
$$

WIZ032>034-041-042-053>061-202200-
SOUTHWEST WISCONSIN

CITY           SKY/WX    TMP DP  RH WIND       PRES   REMARKS
LA CROSSE      CLOUDY    57  49  74 E6        30.19F
SPARTA         CLOUDY    59  50  72 SE5       30.20F
VIROQUA        CLOUDY    54  50  88 E9        30.19F
BOSCOBEL       CLOUDY    58  50  75 E7        30.18F
PRAIRIE DU CHI CLOUDY    57  49  76 NE8       30.17F
PLATTEVILLE    CLOUDY    56  54  94 E10       30.17F
$$

WIZ056-057-062-063-064-067-068-202200-
SOUTH CENTRAL WISCONSIN

CITY           SKY/WX    TMP DP  RH WIND       PRES   REMARKS
REEDSBURG      CLOUDY    57  48  71 E7        30.19F
BARABOO/DELLS  CLOUDY    56  47  70 NE7       30.20F
LONE ROCK      CLOUDY    59  52  77 E9        30.18F
MINERAL POINT  CLOUDY    55  54  94 NE9       30.18F
MADISON        CLOUDY    56  49  77 E9        30.19F
MIDDLETON      CLOUDY    57  50  79 NE8       30.20S
WATERTOWN      PTSUNNY   58  52  80 NE8       30.19F
MONROE         CLOUDY    55  52  88 NE14      30.17F
JANESVILLE     NOT AVBL
$$

WIZ051-052-058>065-066-070>072-202200-
SOUTHEAST WISCONSIN

CITY           SKY/WX    TMP DP  RH WIND       PRES   REMARKS
MILWAUKEE      PTSUNNY   47  40  76 NE10      30.22F
WAUKESHA       CLOUDY    52  45  76 E8        30.22F
MILWAUKEE/TIMM CLOUDY    52  39  62 NE8       30.23F
RACINE         CLOUDY    47  40  76 N12G21    30.23F
BURLINGTON     CLOUDY    53  44  70 NE10      30.20F
KENOSHA        FAIR      52  43  71 NE13      30.21F
FOND DU LAC    FAIR      60  47  61 VRB5      30.21F
SHEBOYGAN      FAIR      54  44  69 NE10      30.23S
WEST BEND      PTSUNNY   57  45  62 E7        30.21F
JUNEAU         CLOUDY    59  49  70 NE3       30.20F
$$

LSZ147-162-202200-
LAKE SUPERIOR

STATION/POSITION TIME  TEMP    WIND        PRES    WAVE
                       AIR SEA DIR/SP/G            HT/PER
                 (UTC) (F)     (DEG/KT/KT) (MB)    (FT/S)
W MID LAKE BUOY  2050   40 36  210/  8/  8 1024.2F   1
DEVILS ISLAND    2100   63     200/  6/  7 1023.5F
SAXON HARBOR     2040   51     320/  1/  2 1023.7F
$$

LMZ867-665-643>646-202200-
LAKE MICHIGAN

STATION/POSITION TIME  TEMP    WIND        PRES    WAVE
                       AIR SEA DIR/SP/G            HT/PER
                 (UTC) (F)     (DEG/KT/KT) (MB)    (FT/S)
NORTHPORT PIER   2040   49                 1023.7F
KEWAUNEE LAKESHO 2100   48      50/  5/  9 1023.6
SHEBOYGAN LAKESH 2100   43      10/  5/  6 1024.3F
PORT WASHINGTON  2040   47      50/  7/ 10 1025.1S
MILWAUKEE LAKESH 2100   44      20/  8/ 11   N/A
KENOSHA   LAKESH 2100   43                 1023.0
$$

TC  - TEMPERATURE IN CELSIUS
VSB - VISIBILITY IN STATUTE MILES
WCI - WIND CHILL INDEX
HX  - HEAT INDEX





USA.gov is the U.S. government's official web portal to all federal, state and local government web resources and services.